Year,Month,Day,Hour,Minute,Value (Times are PST for insolation in W/m^2)
2016,05,23,00,00,0.00
2016,05,23,00,01,0.00
2016,05,23,00,02,0.00
2016,05,23,00,03,0.00
2016,05,23,00,04,0.00
2016,05,23,00,05,0.00
2016,05,23,00,06,0.00
2016,05,23,00,07,0.00
2016,05,23,00,08,0.00
2016,05,23,00,09,0.00
2016,05,23,00,10,0.00
2016,05,23,00,11,0.00
2016,05,23,00,12,0.00
2016,05,23,00,13,0.00
2016,05,23,00,14,0.00
2016,05,23,00,15,0.00
2016,05,23,00,16,0.00
2016,05,23,00,17,0.00
2016,05,23,00,18,0.00
2016,05,23,00,19,0.00
2016,05,23,00,20,0.00
2016,05,23,00,21,0.00
2016,05,23,00,22,0.00
2016,05,23,00,23,0.00
2016,05,23,00,24,0.00
2016,05,23,00,25,0.00
2016,05,23,00,26,0.00
2016,05,23,00,27,0.00
2016,05,23,00,28,0.00
2016,05,23,00,29,0.00
2016,05,23,00,30,0.00
2016,05,23,00,31,0.00
2016,05,23,00,32,0.00
2016,05,23,00,33,0.00
2016,05,23,00,34,0.00
2016,05,23,00,35,0.00
2016,05,23,00,36,0.00
2016,05,23,00,37,0.00
2016,05,23,00,38,0.00
2016,05,23,00,39,0.00
2016,05,23,00,40,0.00
2016,05,23,00,41,0.00
2016,05,23,00,42,0.00
2016,05,23,00,43,0.00
2016,05,23,00,44,0.00
2016,05,23,00,45,0.00
2016,05,23,00,46,0.00
2016,05,23,00,47,0.00
2016,05,23,00,48,0.00
2016,05,23,00,49,0.00
2016,05,23,00,50,0.00
2016,05,23,00,51,0.00
2016,05,23,00,52,0.00
2016,05,23,00,53,0.00
2016,05,23,00,54,0.00
2016,05,23,00,55,0.00
2016,05,23,00,56,0.00
2016,05,23,00,57,0.00
2016,05,23,00,58,0.00
2016,05,23,00,59,0.00
2016,05,23,01,00,0.00
2016,05,23,01,01,0.00
2016,05,23,01,02,0.00
2016,05,23,01,03,0.00
2016,05,23,01,04,0.00
2016,05,23,01,05,0.00
2016,05,23,01,06,0.00
2016,05,23,01,07,0.00
2016,05,23,01,08,0.00
2016,05,23,01,09,0.00
2016,05,23,01,10,0.00
2016,05,23,01,11,0.00
2016,05,23,01,12,0.00
2016,05,23,01,13,0.00
2016,05,23,01,14,0.00
2016,05,23,01,15,0.00
2016,05,23,01,16,0.00
2016,05,23,01,17,0.00
2016,05,23,01,18,0.00
2016,05,23,01,19,0.00
2016,05,23,01,20,0.00
2016,05,23,01,21,0.00
2016,05,23,01,22,0.00
2016,05,23,01,23,0.00
2016,05,23,01,24,0.00
2016,05,23,01,25,0.00
2016,05,23,01,26,0.00
2016,05,23,01,27,0.00
2016,05,23,01,28,0.00
2016,05,23,01,29,0.00
2016,05,23,01,30,0.00
2016,05,23,01,31,0.00
2016,05,23,01,32,0.00
2016,05,23,01,33,0.00
2016,05,23,01,34,0.00
2016,05,23,01,35,0.00
2016,05,23,01,36,0.00
2016,05,23,01,37,0.00
2016,05,23,01,38,0.00
2016,05,23,01,39,0.00
2016,05,23,01,40,0.00
2016,05,23,01,41,0.00
2016,05,23,01,42,0.00
2016,05,23,01,43,0.00
2016,05,23,01,44,0.00
2016,05,23,01,45,0.00
2016,05,23,01,46,0.00
2016,05,23,01,47,0.00
2016,05,23,01,48,0.00
2016,05,23,01,49,0.00
2016,05,23,01,50,0.00
2016,05,23,01,51,0.00
2016,05,23,01,52,0.00
2016,05,23,01,53,0.00
2016,05,23,01,54,0.00
2016,05,23,01,55,0.00
2016,05,23,01,56,0.00
2016,05,23,01,57,0.00
2016,05,23,01,58,0.00
2016,05,23,01,59,0.00
2016,05,23,02,00,0.00
2016,05,23,02,01,0.00
2016,05,23,02,02,0.00
2016,05,23,02,03,0.00
2016,05,23,02,04,0.00
2016,05,23,02,05,0.00
2016,05,23,02,06,0.00
2016,05,23,02,07,0.00
2016,05,23,02,08,0.00
2016,05,23,02,09,0.00
2016,05,23,02,10,0.00
2016,05,23,02,11,0.00
2016,05,23,02,12,0.00
2016,05,23,02,13,0.00
2016,05,23,02,14,0.00
2016,05,23,02,15,0.00
2016,05,23,02,16,0.00
2016,05,23,02,17,0.00
2016,05,23,02,18,0.00
2016,05,23,02,19,0.00
2016,05,23,02,20,0.00
2016,05,23,02,21,0.00
2016,05,23,02,22,0.00
2016,05,23,02,23,0.00
2016,05,23,02,24,0.00
2016,05,23,02,25,0.00
2016,05,23,02,26,0.00
2016,05,23,02,27,0.00
2016,05,23,02,28,0.00
2016,05,23,02,29,0.00
2016,05,23,02,30,0.00
2016,05,23,02,31,0.00
2016,05,23,02,32,0.00
2016,05,23,02,33,0.00
2016,05,23,02,34,0.00
2016,05,23,02,35,0.00
2016,05,23,02,36,0.00
2016,05,23,02,37,0.00
2016,05,23,02,38,0.00
2016,05,23,02,39,0.00
2016,05,23,02,40,0.00
2016,05,23,02,41,0.00
2016,05,23,02,42,0.00
2016,05,23,02,43,0.00
2016,05,23,02,44,0.00
2016,05,23,02,45,0.00
2016,05,23,02,46,0.00
2016,05,23,02,47,0.00
2016,05,23,02,48,0.00
2016,05,23,02,49,0.00
2016,05,23,02,50,0.00
2016,05,23,02,51,0.00
2016,05,23,02,52,0.00
2016,05,23,02,53,0.00
2016,05,23,02,54,0.00
2016,05,23,02,55,0.00
2016,05,23,02,56,0.00
2016,05,23,02,57,0.00
2016,05,23,02,58,0.00
2016,05,23,02,59,0.00
2016,05,23,03,00,0.00
2016,05,23,03,01,0.00
2016,05,23,03,02,0.00
2016,05,23,03,03,0.00
2016,05,23,03,04,0.00
2016,05,23,03,05,0.00
2016,05,23,03,06,0.00
2016,05,23,03,07,0.00
2016,05,23,03,08,0.00
2016,05,23,03,09,0.00
2016,05,23,03,10,0.00
2016,05,23,03,11,0.00
2016,05,23,03,12,0.00
2016,05,23,03,13,0.00
2016,05,23,03,14,0.00
2016,05,23,03,15,0.00
2016,05,23,03,16,0.00
2016,05,23,03,17,0.00
2016,05,23,03,18,0.00
2016,05,23,03,19,0.00
2016,05,23,03,20,0.00
2016,05,23,03,21,0.00
2016,05,23,03,22,0.00
2016,05,23,03,23,0.00
2016,05,23,03,24,0.00
2016,05,23,03,25,0.00
2016,05,23,03,26,0.00
2016,05,23,03,27,0.00
2016,05,23,03,28,0.00
2016,05,23,03,29,0.00
2016,05,23,03,30,0.00
2016,05,23,03,31,0.00
2016,05,23,03,32,0.00
2016,05,23,03,33,0.00
2016,05,23,03,34,0.00
2016,05,23,03,35,0.00
2016,05,23,03,36,0.00
2016,05,23,03,37,0.00
2016,05,23,03,38,0.00
2016,05,23,03,39,0.00
2016,05,23,03,40,0.00
2016,05,23,03,41,0.00
2016,05,23,03,42,0.00
2016,05,23,03,43,0.00
2016,05,23,03,44,0.00
2016,05,23,03,45,0.00
2016,05,23,03,46,0.00
2016,05,23,03,47,0.00
2016,05,23,03,48,0.00
2016,05,23,03,49,0.00
2016,05,23,03,50,0.00
2016,05,23,03,51,0.00
2016,05,23,03,52,0.00
2016,05,23,03,53,0.00
2016,05,23,03,54,0.00
2016,05,23,03,55,0.00
2016,05,23,03,56,0.00
2016,05,23,03,57,0.00
2016,05,23,03,58,0.00
2016,05,23,03,59,0.00
2016,05,23,04,00,0.00
2016,05,23,04,01,0.00
2016,05,23,04,02,0.00
2016,05,23,04,03,0.00
2016,05,23,04,04,0.00
2016,05,23,04,05,0.00
2016,05,23,04,06,0.00
2016,05,23,04,07,0.00
2016,05,23,04,08,0.00
2016,05,23,04,09,0.00
2016,05,23,04,10,0.00
2016,05,23,04,11,0.00
2016,05,23,04,12,0.00
2016,05,23,04,13,0.00
2016,05,23,04,14,0.00
2016,05,23,04,15,0.00
2016,05,23,04,16,0.00
2016,05,23,04,17,0.00
2016,05,23,04,18,0.00
2016,05,23,04,19,0.00
2016,05,23,04,20,0.00
2016,05,23,04,21,0.00
2016,05,23,04,22,0.00
2016,05,23,04,23,0.00
2016,05,23,04,24,0.00
2016,05,23,04,25,0.00
2016,05,23,04,26,0.00
2016,05,23,04,27,0.00
2016,05,23,04,28,0.00
2016,05,23,04,29,0.00
2016,05,23,04,30,0.00
2016,05,23,04,31,0.00
2016,05,23,04,32,0.00
2016,05,23,04,33,0.00
2016,05,23,04,34,0.00
2016,05,23,04,35,0.00
2016,05,23,04,36,0.00
2016,05,23,04,37,0.00
2016,05,23,04,38,0.00
2016,05,23,04,39,0.00
2016,05,23,04,40,0.00
2016,05,23,04,41,0.00
2016,05,23,04,42,0.00
2016,05,23,04,43,0.00
2016,05,23,04,44,0.00
2016,05,23,04,45,0.00
2016,05,23,04,46,0.00
2016,05,23,04,47,0.00
2016,05,23,04,48,0.00
2016,05,23,04,49,0.00
2016,05,23,04,50,0.00
2016,05,23,04,51,0.00
2016,05,23,04,52,0.00
2016,05,23,04,53,0.00
2016,05,23,04,54,0.00
2016,05,23,04,55,0.00
2016,05,23,04,56,0.00
2016,05,23,04,57,0.00
2016,05,23,04,58,0.00
2016,05,23,04,59,0.00
2016,05,23,05,00,0.00
2016,05,23,05,01,0.00
2016,05,23,05,02,0.00
2016,05,23,05,03,0.00
2016,05,23,05,04,0.00
2016,05,23,05,05,0.00
2016,05,23,05,06,0.00
2016,05,23,05,07,0.00
2016,05,23,05,08,0.00
2016,05,23,05,09,0.00
2016,05,23,05,10,0.00
2016,05,23,05,11,0.00
2016,05,23,05,12,0.00
2016,05,23,05,13,0.00
2016,05,23,05,14,0.00
2016,05,23,05,15,0.00
2016,05,23,05,16,0.00
2016,05,23,05,17,0.00
2016,05,23,05,18,0.00
2016,05,23,05,19,0.00
2016,05,23,05,20,0.00
2016,05,23,05,21,0.00
2016,05,23,05,22,0.00
2016,05,23,05,23,0.00
2016,05,23,05,24,0.00
2016,05,23,05,25,0.00
2016,05,23,05,26,0.00
2016,05,23,05,27,0.00
2016,05,23,05,28,0.00
2016,05,23,05,29,0.00
2016,05,23,05,30,0.00
2016,05,23,05,31,0.00
2016,05,23,05,32,0.00
2016,05,23,05,33,0.00
2016,05,23,05,34,0.00
2016,05,23,05,35,0.00
2016,05,23,05,36,0.00
2016,05,23,05,37,0.00
2016,05,23,05,38,0.00
2016,05,23,05,39,0.00
2016,05,23,05,40,0.00
2016,05,23,05,41,0.00
2016,05,23,05,42,2.10
2016,05,23,05,43,5.00
2016,05,23,05,44,5.00
2016,05,23,05,45,5.00
2016,05,23,05,46,5.00
2016,05,23,05,47,5.00
2016,05,23,05,48,5.00
2016,05,23,05,49,5.80
2016,05,23,05,50,7.00
2016,05,23,05,51,7.00
2016,05,23,05,52,8.60
2016,05,23,05,53,9.00
2016,05,23,05,54,9.00
2016,05,23,05,55,9.00
2016,05,23,05,56,9.00
2016,05,23,05,57,9.00
2016,05,23,05,58,9.00
2016,05,23,05,59,9.00
2016,05,23,06,00,9.10
2016,05,23,06,01,11.00
2016,05,23,06,02,11.00
2016,05,23,06,03,11.00
2016,05,23,06,04,11.00
2016,05,23,06,05,11.70
2016,05,23,06,06,12.00
2016,05,23,06,07,12.10
2016,05,23,06,08,14.00
2016,05,23,06,09,14.00
2016,05,23,06,10,14.80
2016,05,23,06,11,17.10
2016,05,23,06,12,18.00
2016,05,23,06,13,18.00
2016,05,23,06,14,18.00
2016,05,23,06,15,19.30
2016,05,23,06,16,21.00
2016,05,23,06,17,21.00
2016,05,23,06,18,22.10
2016,05,23,06,19,23.00
2016,05,23,06,20,24.60
2016,05,23,06,21,25.00
2016,05,23,06,22,25.20
2016,05,23,06,23,26.00
2016,05,23,06,24,26.00
2016,05,23,06,25,26.00
2016,05,23,06,26,26.00
2016,05,23,06,27,26.00
2016,05,23,06,28,27.90
2016,05,23,06,29,28.00
2016,05,23,06,30,28.00
2016,05,23,06,31,28.00
2016,05,23,06,32,28.00
2016,05,23,06,33,28.00
2016,05,23,06,34,28.00
2016,05,23,06,35,28.00
2016,05,23,06,36,28.30
2016,05,23,06,37,30.60
2016,05,23,06,38,32.40
2016,05,23,06,39,34.10
2016,05,23,06,40,36.30
2016,05,23,06,41,38.60
2016,05,23,06,42,39.10
2016,05,23,06,43,39.80
2016,05,23,06,44,39.00
2016,05,23,06,45,38.20
2016,05,23,06,46,35.90
2016,05,23,06,47,35.00
2016,05,23,06,48,35.00
2016,05,23,06,49,35.00
2016,05,23,06,50,35.70
2016,05,23,06,51,39.30
2016,05,23,06,52,40.80
2016,05,23,06,53,43.10
2016,05,23,06,54,45.40
2016,05,23,06,55,46.00
2016,05,23,06,56,47.00
2016,05,23,06,57,49.00
2016,05,23,06,58,49.60
2016,05,23,06,59,51.80
2016,05,23,07,00,53.50
2016,05,23,07,01,54.00
2016,05,23,07,02,55.60
2016,05,23,07,03,56.00
2016,05,23,07,04,56.40
2016,05,23,07,05,58.00
2016,05,23,07,06,58.00
2016,05,23,07,07,59.10
2016,05,23,07,08,60.00
2016,05,23,07,09,60.00
2016,05,23,07,10,60.00
2016,05,23,07,11,60.00
2016,05,23,07,12,60.00
2016,05,23,07,13,60.00
2016,05,23,07,14,60.00
2016,05,23,07,15,61.40
2016,05,23,07,16,64.40
2016,05,23,07,17,65.00
2016,05,23,07,18,66.90
2016,05,23,07,19,74.60
2016,05,23,07,20,76.40
2016,05,23,07,21,77.00
2016,05,23,07,22,78.30
2016,05,23,07,23,79.00
2016,05,23,07,24,78.90
2016,05,23,07,25,77.00
2016,05,23,07,26,76.70
2016,05,23,07,27,75.20
2016,05,23,07,28,74.00
2016,05,23,07,29,74.00
2016,05,23,07,30,74.00
2016,05,23,07,31,74.10
2016,05,23,07,32,76.00
2016,05,23,07,33,76.00
2016,05,23,07,34,75.20
2016,05,23,07,35,74.00
2016,05,23,07,36,74.00
2016,05,23,07,37,74.00
2016,05,23,07,38,73.90
2016,05,23,07,39,72.00
2016,05,23,07,40,72.00
2016,05,23,07,41,72.90
2016,05,23,07,42,75.70
2016,05,23,07,43,78.40
2016,05,23,07,44,82.20
2016,05,23,07,45,84.10
2016,05,23,07,46,86.40
2016,05,23,07,47,88.00
2016,05,23,07,48,88.00
2016,05,23,07,49,86.90
2016,05,23,07,50,86.00
2016,05,23,07,51,87.60
2016,05,23,07,52,89.90
2016,05,23,07,53,91.70
2016,05,23,07,54,95.00
2016,05,23,07,55,95.80
2016,05,23,07,56,97.00
2016,05,23,07,57,95.70
2016,05,23,07,58,95.00
2016,05,23,07,59,96.90
2016,05,23,08,00,98.30
2016,05,23,08,01,101.40
2016,05,23,08,02,106.70
2016,05,23,08,03,111.80
2016,05,23,08,04,116.80
2016,05,23,08,05,119.60
2016,05,23,08,06,121.10
2016,05,23,08,07,123.00
2016,05,23,08,08,123.60
2016,05,23,08,09,125.80
2016,05,23,08,10,129.80
2016,05,23,08,11,135.30
2016,05,23,08,12,141.00
2016,05,23,08,13,148.80
2016,05,23,08,14,156.70
2016,05,23,08,15,160.00
2016,05,23,08,16,160.00
2016,05,23,08,17,160.00
2016,05,23,08,18,160.00
2016,05,23,08,19,169.00
2016,05,23,08,20,176.00
2016,05,23,08,21,185.90
2016,05,23,08,22,190.60
2016,05,23,08,23,191.10
2016,05,23,08,24,187.20
2016,05,23,08,25,180.90
2016,05,23,08,26,179.00
2016,05,23,08,27,169.70
2016,05,23,08,28,169.00
2016,05,23,08,29,167.10
2016,05,23,08,30,160.80
2016,05,23,08,31,156.30
2016,05,23,08,32,152.20
2016,05,23,08,33,148.50
2016,05,23,08,34,142.20
2016,05,23,08,35,136.50
2016,05,23,08,36,134.00
2016,05,23,08,37,134.00
2016,05,23,08,38,134.50
2016,05,23,08,39,135.00
2016,05,23,08,40,139.80
2016,05,23,08,41,148.50
2016,05,23,08,42,165.00
2016,05,23,08,43,183.40
2016,05,23,08,44,197.10
2016,05,23,08,45,202.20
2016,05,23,08,46,206.10
2016,05,23,08,47,208.60
2016,05,23,08,48,206.80
2016,05,23,08,49,200.20
2016,05,23,08,50,188.40
2016,05,23,08,51,174.90
2016,05,23,08,52,161.80
2016,05,23,08,53,151.20
2016,05,23,08,54,146.60
2016,05,23,08,55,142.10
2016,05,23,08,56,138.30
2016,05,23,08,57,133.60
2016,05,23,08,58,127.10
2016,05,23,08,59,121.30
2016,05,23,09,00,117.40
2016,05,23,09,01,116.00
2016,05,23,09,02,116.30
2016,05,23,09,03,120.00
2016,05,23,09,04,118.80
2016,05,23,09,05,114.80
2016,05,23,09,06,110.80
2016,05,23,09,07,109.00
2016,05,23,09,08,109.00
2016,05,23,09,09,110.90
2016,05,23,09,10,111.00
2016,05,23,09,11,111.90
2016,05,23,09,12,115.80
2016,05,23,09,13,119.70
2016,05,23,09,14,125.10
2016,05,23,09,15,131.00
2016,05,23,09,16,137.00
2016,05,23,09,17,143.10
2016,05,23,09,18,150.50
2016,05,23,09,19,163.20
2016,05,23,09,20,183.60
2016,05,23,09,21,210.00
2016,05,23,09,22,232.30
2016,05,23,09,23,243.40
2016,05,23,09,24,245.60
2016,05,23,09,25,251.00
2016,05,23,09,26,241.90
2016,05,23,09,27,227.70
2016,05,23,09,28,212.70
2016,05,23,09,29,203.40
2016,05,23,09,30,200.40
2016,05,23,09,31,205.90
2016,05,23,09,32,216.40
2016,05,23,09,33,230.40
2016,05,23,09,34,244.50
2016,05,23,09,35,258.20
2016,05,23,09,36,263.60
2016,05,23,09,37,262.10
2016,05,23,09,38,259.50
2016,05,23,09,39,255.10
2016,05,23,09,40,249.80
2016,05,23,09,41,245.20
2016,05,23,09,42,238.20
2016,05,23,09,43,227.00
2016,05,23,09,44,218.50
2016,05,23,09,45,218.00
2016,05,23,09,46,218.00
2016,05,23,09,47,208.60
2016,05,23,09,48,194.70
2016,05,23,09,49,192.30
2016,05,23,09,50,190.40
2016,05,23,09,51,190.00
2016,05,23,09,52,190.00
2016,05,23,09,53,190.60
2016,05,23,09,54,192.40
2016,05,23,09,55,193.00
2016,05,23,09,56,195.70
2016,05,23,09,57,198.60
2016,05,23,09,58,199.90
2016,05,23,09,59,200.00
2016,05,23,10,00,200.00
2016,05,23,10,01,200.00
2016,05,23,10,02,201.10
2016,05,23,10,03,202.00
2016,05,23,10,04,206.00
2016,05,23,10,05,210.90
2016,05,23,10,06,215.10
2016,05,23,10,07,220.80
2016,05,23,10,08,226.10
2016,05,23,10,09,233.20
2016,05,23,10,10,240.80
2016,05,23,10,11,248.60
2016,05,23,10,12,254.90
2016,05,23,10,13,263.20
2016,05,23,10,14,271.20
2016,05,23,10,15,278.90
2016,05,23,10,16,286.90
2016,05,23,10,17,294.80
2016,05,23,10,18,301.10
2016,05,23,10,19,304.00
2016,05,23,10,20,308.50
2016,05,23,10,21,312.20
2016,05,23,10,22,314.10
2016,05,23,10,23,310.20
2016,05,23,10,24,305.20
2016,05,23,10,25,307.30
2016,05,23,10,26,312.70
2016,05,23,10,27,321.70
2016,05,23,10,28,332.80
2016,05,23,10,29,342.00
2016,05,23,10,30,347.10
2016,05,23,10,31,348.00
2016,05,23,10,32,348.00
2016,05,23,10,33,367.60
2016,05,23,10,34,399.20
2016,05,23,10,35,428.90
2016,05,23,10,36,463.80
2016,05,23,10,37,496.00
2016,05,23,10,38,496.00
2016,05,23,10,39,565.00
2016,05,23,10,40,580.50
2016,05,23,10,41,575.40
2016,05,23,10,42,523.00
2016,05,23,10,43,502.00
2016,05,23,10,44,495.40
2016,05,23,10,45,491.40
2016,05,23,10,46,472.60
2016,05,23,10,47,458.00
2016,05,23,10,48,461.80
2016,05,23,10,49,461.90
2016,05,23,10,50,464.90
2016,05,23,10,51,467.70
2016,05,23,10,52,453.10
2016,05,23,10,53,446.00
2016,05,23,10,54,427.00
2016,05,23,10,55,420.00
2016,05,23,10,56,421.20
2016,05,23,10,57,426.20
2016,05,23,10,58,437.80
2016,05,23,10,59,440.20
2016,05,23,11,00,433.20
2016,05,23,11,01,431.80
2016,05,23,11,02,425.40
2016,05,23,11,03,417.70
2016,05,23,11,04,417.00
2016,05,23,11,05,417.00
2016,05,23,11,06,415.60
2016,05,23,11,07,405.10
2016,05,23,11,08,390.60
2016,05,23,11,09,385.40
2016,05,23,11,10,388.60
2016,05,23,11,11,396.70
2016,05,23,11,12,414.60
2016,05,23,11,13,430.90
2016,05,23,11,14,434.00
2016,05,23,11,15,473.00
2016,05,23,11,16,476.00
2016,05,23,11,17,487.10
2016,05,23,11,18,505.50
2016,05,23,11,19,492.00
2016,05,23,11,20,488.60
2016,05,23,11,21,494.90
2016,05,23,11,22,500.00
2016,05,23,11,23,539.60
2016,05,23,11,24,533.00
2016,05,23,11,25,554.50
2016,05,23,11,26,605.40
2016,05,23,11,27,571.10
2016,05,23,11,28,547.00
2016,05,23,11,29,532.40
2016,05,23,11,30,538.40
2016,05,23,11,31,528.50
2016,05,23,11,32,534.00
2016,05,23,11,33,550.60
2016,05,23,11,34,555.70
2016,05,23,11,35,595.50
2016,05,23,11,36,611.00
2016,05,23,11,37,616.00
2016,05,23,11,38,560.90
2016,05,23,11,39,565.70
2016,05,23,11,40,571.30
2016,05,23,11,41,572.70
2016,05,23,11,42,560.80
2016,05,23,11,43,532.00
2016,05,23,11,44,517.10
2016,05,23,11,45,508.70
2016,05,23,11,46,508.70
2016,05,23,11,47,518.60
2016,05,23,11,48,535.50
2016,05,23,11,49,579.10
2016,05,23,11,50,604.00
2016,05,23,11,51,616.00
2016,05,23,11,52,667.30
2016,05,23,11,53,732.90
2016,05,23,11,54,754.00
2016,05,23,11,55,1183.50
2016,05,23,11,56,1399.70
2016,05,23,11,57,1403.00
2016,05,23,11,58,1403.00
2016,05,23,11,59,1403.00
2016,05,23,12,00,1403.00
2016,05,23,12,01,1097.30
2016,05,23,12,02,868.00
2016,05,23,12,03,868.00
2016,05,23,12,04,868.00
2016,05,23,12,05,868.00
2016,05,23,12,06,868.00
2016,05,23,12,07,981.80
2016,05,23,12,08,1143.00
2016,05,23,12,09,1143.00
2016,05,23,12,10,1143.00
2016,05,23,12,11,1135.60
2016,05,23,12,12,935.00
2016,05,23,12,13,935.00
2016,05,23,12,14,935.00
2016,05,23,12,15,935.00
2016,05,23,12,16,843.40
2016,05,23,12,17,805.60
2016,05,23,12,18,797.00
2016,05,23,12,19,525.70
2016,05,23,12,20,524.00
2016,05,23,12,21,543.70
2016,05,23,12,22,541.90
2016,05,23,12,23,524.40
2016,05,23,12,24,565.10
2016,05,23,12,25,658.90
2016,05,23,12,26,706.40
2016,05,23,12,27,752.20
2016,05,23,12,28,767.10
2016,05,23,12,29,742.00
2016,05,23,12,30,742.00
2016,05,23,12,31,742.00
2016,05,23,12,32,623.60
2016,05,23,12,33,665.30
2016,05,23,12,34,734.90
2016,05,23,12,35,772.80
2016,05,23,12,36,791.00
2016,05,23,12,37,631.00
2016,05,23,12,38,557.40
2016,05,23,12,39,580.30
2016,05,23,12,40,582.00
2016,05,23,12,41,563.40
2016,05,23,12,42,522.00
2016,05,23,12,43,516.90
2016,05,23,12,44,510.90
2016,05,23,12,45,514.10
2016,05,23,12,46,536.30
2016,05,23,12,47,534.20
2016,05,23,12,48,524.10
2016,05,23,12,49,522.70
2016,05,23,12,50,523.70
2016,05,23,12,51,519.90
2016,05,23,12,52,513.40
2016,05,23,12,53,501.50
2016,05,23,12,54,493.30
2016,05,23,12,55,488.60
2016,05,23,12,56,482.90
2016,05,23,12,57,477.20
2016,05,23,12,58,470.90
2016,05,23,12,59,463.40
2016,05,23,13,00,459.00
2016,05,23,13,01,457.80
2016,05,23,13,02,462.00
2016,05,23,13,03,467.10
2016,05,23,13,04,476.10
2016,05,23,13,05,486.20
2016,05,23,13,06,495.60
2016,05,23,13,07,512.80
2016,05,23,13,08,522.40
2016,05,23,13,09,504.60
2016,05,23,13,10,498.90
2016,05,23,13,11,492.10
2016,05,23,13,12,487.60
2016,05,23,13,13,488.60
2016,05,23,13,14,495.80
2016,05,23,13,15,524.40
2016,05,23,13,16,526.30
2016,05,23,13,17,527.00
2016,05,23,13,18,526.40
2016,05,23,13,19,524.60
2016,05,23,13,20,520.00
2016,05,23,13,21,510.30
2016,05,23,13,22,499.80
2016,05,23,13,23,492.80
2016,05,23,13,24,489.60
2016,05,23,13,25,489.00
2016,05,23,13,26,489.70
2016,05,23,13,27,493.20
2016,05,23,13,28,499.30
2016,05,23,13,29,509.60
2016,05,23,13,30,519.80
2016,05,23,13,31,529.40
2016,05,23,13,32,541.70
2016,05,23,13,33,544.60
2016,05,23,13,34,544.60
2016,05,23,13,35,547.60
2016,05,23,13,36,560.60
2016,05,23,13,37,581.70
2016,05,23,13,38,600.10
2016,05,23,13,39,635.10
2016,05,23,13,40,650.60
2016,05,23,13,41,644.10
2016,05,23,13,42,639.20
2016,05,23,13,43,630.00
2016,05,23,13,44,649.90
2016,05,23,13,45,661.50
2016,05,23,13,46,677.20
2016,05,23,13,47,691.90
2016,05,23,13,48,735.30
2016,05,23,13,49,733.20
2016,05,23,13,50,828.90
2016,05,23,13,51,910.70
2016,05,23,13,52,960.00
2016,05,23,13,53,960.00
2016,05,23,13,54,822.90
2016,05,23,13,55,775.40
2016,05,23,13,56,702.40
2016,05,23,13,57,720.40
2016,05,23,13,58,780.00
2016,05,23,13,59,752.70
2016,05,23,14,00,687.50
2016,05,23,14,01,652.40
2016,05,23,14,02,641.40
2016,05,23,14,03,631.60
2016,05,23,14,04,631.70
2016,05,23,14,05,637.30
2016,05,23,14,06,661.20
2016,05,23,14,07,659.70
2016,05,23,14,08,620.90
2016,05,23,14,09,612.20
2016,05,23,14,10,591.90
2016,05,23,14,11,569.60
2016,05,23,14,12,570.80
2016,05,23,14,13,577.40
2016,05,23,14,14,588.30
2016,05,23,14,15,613.90
2016,05,23,14,16,621.20
2016,05,23,14,17,621.60
2016,05,23,14,18,589.30
2016,05,23,14,19,574.80
2016,05,23,14,20,564.20
2016,05,23,14,21,554.20
2016,05,23,14,22,548.60
2016,05,23,14,23,545.40
2016,05,23,14,24,540.90
2016,05,23,14,25,534.40
2016,05,23,14,26,524.10
2016,05,23,14,27,513.30
2016,05,23,14,28,501.90
2016,05,23,14,29,492.20
2016,05,23,14,30,484.40
2016,05,23,14,31,482.10
2016,05,23,14,32,482.00
2016,05,23,14,33,484.20
2016,05,23,14,34,489.40
2016,05,23,14,35,489.50
2016,05,23,14,36,485.10
2016,05,23,14,37,476.70
2016,05,23,14,38,469.40
2016,05,23,14,39,469.40
2016,05,23,14,40,480.30
2016,05,23,14,41,496.90
2016,05,23,14,42,515.90
2016,05,23,14,43,552.50
2016,05,23,14,44,588.20
2016,05,23,14,45,559.40
2016,05,23,14,46,499.40
2016,05,23,14,47,494.20
2016,05,23,14,48,497.70
2016,05,23,14,49,491.00
2016,05,23,14,50,485.60
2016,05,23,14,51,485.00
2016,05,23,14,52,487.20
2016,05,23,14,53,498.00
2016,05,23,14,54,505.20
2016,05,23,14,55,512.10
2016,05,23,14,56,517.20
2016,05,23,14,57,516.30
2016,05,23,14,58,513.40
2016,05,23,14,59,525.30
2016,05,23,15,00,506.10
2016,05,23,15,01,496.10
2016,05,23,15,02,488.90
2016,05,23,15,03,483.70
2016,05,23,15,04,497.40
2016,05,23,15,05,507.10
2016,05,23,15,06,518.60
2016,05,23,15,07,506.00
2016,05,23,15,08,506.60
2016,05,23,15,09,504.10
2016,05,23,15,10,499.00
2016,05,23,15,11,506.50
2016,05,23,15,12,537.80
2016,05,23,15,13,595.50
2016,05,23,15,14,651.20
2016,05,23,15,15,719.40
2016,05,23,15,16,717.70
2016,05,23,15,17,744.00
2016,05,23,15,18,760.60
2016,05,23,15,19,749.10
2016,05,23,15,20,783.90
2016,05,23,15,21,791.20
2016,05,23,15,22,788.40
2016,05,23,15,23,821.00
2016,05,23,15,24,816.00
2016,05,23,15,25,824.90
2016,05,23,15,26,808.80
2016,05,23,15,27,811.70
2016,05,23,15,28,821.00
2016,05,23,15,29,795.20
2016,05,23,15,30,720.90
2016,05,23,15,31,685.30
2016,05,23,15,32,654.60
2016,05,23,15,33,618.80
2016,05,23,15,34,590.60
2016,05,23,15,35,588.10
2016,05,23,15,36,580.60
2016,05,23,15,37,566.10
2016,05,23,15,38,553.10
2016,05,23,15,39,547.90
2016,05,23,15,40,533.90
2016,05,23,15,41,507.20
2016,05,23,15,42,499.40
2016,05,23,15,43,502.60
2016,05,23,15,44,510.70
2016,05,23,15,45,535.20
2016,05,23,15,46,541.70
2016,05,23,15,47,556.90
2016,05,23,15,48,593.60
2016,05,23,15,49,651.20
2016,05,23,15,50,643.60
2016,05,23,15,51,588.90
2016,05,23,15,52,543.60
2016,05,23,15,53,532.40
2016,05,23,15,54,533.00
2016,05,23,15,55,544.80
2016,05,23,15,56,572.30
2016,05,23,15,57,612.00
2016,05,23,15,58,614.10
2016,05,23,15,59,610.90
2016,05,23,16,00,578.90
2016,05,23,16,01,610.40
2016,05,23,16,02,651.20
2016,05,23,16,03,603.10
2016,05,23,16,04,690.90
2016,05,23,16,05,741.00
2016,05,23,16,06,729.70
2016,05,23,16,07,738.10
2016,05,23,16,08,808.10
2016,05,23,16,09,854.80
2016,05,23,16,10,815.60
2016,05,23,16,11,753.10
2016,05,23,16,12,680.30
2016,05,23,16,13,636.30
2016,05,23,16,14,594.40
2016,05,23,16,15,545.90
2016,05,23,16,16,500.40
2016,05,23,16,17,472.30
2016,05,23,16,18,433.00
2016,05,23,16,19,403.00
2016,05,23,16,20,396.60
2016,05,23,16,21,433.00
2016,05,23,16,22,430.20
2016,05,23,16,23,424.60
2016,05,23,16,24,437.00
2016,05,23,16,25,429.10
2016,05,23,16,26,401.70
2016,05,23,16,27,352.60
2016,05,23,16,28,315.60
2016,05,23,16,29,291.70
2016,05,23,16,30,279.70
2016,05,23,16,31,287.40
2016,05,23,16,32,334.60
2016,05,23,16,33,350.80
2016,05,23,16,34,317.80
2016,05,23,16,35,324.80
2016,05,23,16,36,332.60
2016,05,23,16,37,339.40
2016,05,23,16,38,364.00
2016,05,23,16,39,417.50
2016,05,23,16,40,447.10
2016,05,23,16,41,404.70
2016,05,23,16,42,401.20
2016,05,23,16,43,357.10
2016,05,23,16,44,336.10
2016,05,23,16,45,324.40
2016,05,23,16,46,322.00
2016,05,23,16,47,323.20
2016,05,23,16,48,334.90
2016,05,23,16,49,384.40
2016,05,23,16,50,346.90
2016,05,23,16,51,312.10
2016,05,23,16,52,301.90
2016,05,23,16,53,316.00
2016,05,23,16,54,361.30
2016,05,23,16,55,360.20
2016,05,23,16,56,361.10
2016,05,23,16,57,332.60
2016,05,23,16,58,309.30
2016,05,23,16,59,299.80
2016,05,23,17,00,295.00
2016,05,23,17,01,297.70
2016,05,23,17,02,303.90
2016,05,23,17,03,310.80
2016,05,23,17,04,330.20
2016,05,23,17,05,396.80
2016,05,23,17,06,422.70
2016,05,23,17,07,384.10
2016,05,23,17,08,378.00
2016,05,23,17,09,379.10
2016,05,23,17,10,389.20